{"data":{"norad_id":64381,"intl_designator":"2025-127M","name":"STARLINK-11692 [DTC]","alt_names":[],"object_type":"PAYLOAD","status":"ACTIVE","operator":null,"country":"US","launch_date":"2025-06-13","launch_site_code":"AFETR","launch_vehicle":null,"mission":null,"orbit_class":"UNKNOWN","rcs_meters":null,"size_class":null,"mass_kg":null,"dimensions":null,"purposes":["comms"],"wikipedia_slug":null,"has_3d_model":false,"image_url":null,"decayed_at":null,"tle_current":{"epoch":"2026-09-20T07:40:14.892384Z","epoch_age_seconds":149850,"freshness":"FRESH","line1":"1 64381U 25127M   26263.31961681  .00123507  00000+0  95168-3 0  9992","line2":"2 64381  43.0003 351.2758 0003459 299.0204  61.0317 15.70837771 74221","mean_motion":15.70837771,"eccentricity":0.0003459,"inclination_deg":43.0003,"raan_deg":351.2758,"arg_perigee_deg":299.0204,"mean_anomaly_deg":61.0317,"bstar":0.00095168,"rev_number":7422,"period_min":91.670828559418,"perigee_km":354.17192104147,"apogee_km":358.83094390905,"semimajor_km":6734.6384324753,"source":"CELESTRAK","updated_at":"2026-09-21T09:00:35.324161Z"}}}